Location: Colossi of Memnon
(25.7167°N, 32.6167°E)
Time: 20:04:18
(UTC+00:00)

COSMO-SKYMED 1 - Pass Details

Date: 05 March 2021
Orbit: 621 x 623 km, 97.9° (Epoch: 21 April)

Event Time Altitude Azimuth Distance (km) Brightness Sun altitude
Rises 03:16:25 0° 169° (S) 2,886 6.1 -12.6°
Reaches altitude 10° 03:18:36 10° 170° (S) 1,983 5.3 -12.1°
Maximum altitude 03:22:55 83° 256° (WSW) 631 2.5 -11.2°
Drops below altitude 10° 03:27:16 10° 346° (NNW) 1,994 5.0 -10.2°
Sets 03:29:27 0° 348° (NNW) 2,903 5.9 -9.7°
